(143422) = 2001 TD216 = 2003 BJ56

Discovered at Haleakala on 2003-01-28 by NEAT.

Orbit

Orbit type: Main Belt

Note: WebGL enabled browser required.

epoch2023-09-13.0
epoch JD2460200.5
perihelion date2019-02-09.74685
perihelion JD2458524.24685
argument of perihelion (°)85.45038
ascending node (°)338.64059
inclination (°)8.36855
eccentricity0.0961059
perihelion distance (AU)2.8681122
Tisserand w.r.t. Jupiter3.2
ΔV w.r.t. Earth (km/sec)10.8
semimajor axis (AU)3.1730622
mean anomaly (°)292.29782
mean daily motion (°/day)0.17437570
aphelion distance (AU)3.478
period (years)5.65
P-vector [x]0.43307770
P-vector [y]0.75848559
P-vector [z]0.48697362
Q-vector [x]-0.89979656
Q-vector [y]0.39557401
Q-vector [z]0.18408520
absolute magnitude15.09
phase slope0.15
uncertainty0
referenceMPEC 2024-A55
observations used663
oppositions16
arc length (days)8131
first opposition used2001
last opposition used2023
residual rms (arc-secs)0.75
perturbers coarse indicatorM-v
perturbers precise indicator003Ek
first observation date used2001-09-25.0
last observation date used2023-12-30.0
computer nameMPCLINUX
JD of orbit computation2456700.191197
perihelion JD uncertainty (days)3.1160E-04
argument of perihelion uncertainty (°)7.2999E-05
ascending node uncertainty (°)3.9977E-05
inclination uncertainty (°)7.3742E-06
eccentricity uncertainty 5.0455E-08
perihelion distance uncertainty (AU)1.6218E-07
Minimum Orbit Intersection Distances (in AU)
for orbit epoch: 2460200.5, reference: E2023-YB1
Mercury2.56104
Venus2.15869
Earth1.896
Mars1.33748
Jupiter1.8223
Saturn6.14226
Uranus15.1885
Neptune26.8579

Observations

680 total observations over interval: 2001 09 25.33634 – 2023 12 30.233458
These data are available for download (format description).

Date (UT) J2000 RA J2000 Dec Magn Location Ref
2001 09 25.33634 02 48 52.27 +26 00 03.3 19.7   704 – Lincoln Laboratory ETS, New Mexico MPS 112838
2001 09 25.35135 02 48 51.97 +26 00 06.4 20.0   704 – Lincoln Laboratory ETS, New Mexico MPS 112838
2001 09 25.36633 02 48 51.64 +26 00 06.9 20.4   704 – Lincoln Laboratory ETS, New Mexico MPS 112838
2001 09 25.38130 02 48 51.39 +26 00 10.6 20.4   704 – Lincoln Laboratory ETS, New Mexico MPS 112838
2001 09 25.39628 02 48 51.03 +26 00 13.2 20.4   704 – Lincoln Laboratory ETS, New Mexico MPS 112838
2001 10 13.48475 02 39 13.65 +26 26 42.8 19.8   644 – Palomar Mountain/NEAT MPS 55039
2001 10 13.49658 02 39 13.13 +26 26 43.1 20.2   644 – Palomar Mountain/NEAT MPS 55039
2001 10 13.51537 02 39 12.29 +26 26 43.3 19.7   644 – Palomar Mountain/NEAT MPS 55039
2001 10 19.33588 02 34 44.88 +26 24 55.7 18.9   704 – Lincoln Laboratory ETS, New Mexico MPS 55039
2001 10 19.35245 02 34 44.11 +26 24 53.3 19.4   704 – Lincoln Laboratory ETS, New Mexico MPS 55039
2001 10 19.36858 02 34 43.34 +26 24 52.4 19.9   704 – Lincoln Laboratory ETS, New Mexico MPS 55039
2001 10 19.38485 02 34 42.46 +26 24 52.6 19.4   704 – Lincoln Laboratory ETS, New Mexico MPS 55039
2001 11 11.28307 02 14 53.21 +25 31 08.4 18.5 R 699 – Lowell Observatory-LONEOS MPS 173884
2001 11 11.30577 02 14 52.11 +25 31 04.5   699 – Lowell Observatory-LONEOS MPS 173884
2001 11 11.32852 02 14 50.91 +25 30 58.6   699 – Lowell Observatory-LONEOS MPS 173884
2001 11 11.35130 02 14 49.79 +25 30 54.0   699 – Lowell Observatory-LONEOS MPS 173884
2001 11 12.22161 02 14 06.60 +25 27 41.9 18.6   704 – Lincoln Laboratory ETS, New Mexico MPS 173884
2001 11 12.25034 02 14 05.15 +25 27 36.0 18.9   704 – Lincoln Laboratory ETS, New Mexico MPS 173884
2001 11 12.27907 02 14 03.66 +25 27 29.9 18.8   704 – Lincoln Laboratory ETS, New Mexico MPS 173884
2001 12 07.34738 01 58 59.07 +23 47 47.8 20.5   644 – Palomar Mountain/NEAT MPS 112838
2001 12 07.36793 01 58 58.63 +23 47 43.0 20.4   644 – Palomar Mountain/NEAT MPS 112838
2001 12 07.38887 01 58 58.22 +23 47 38.7 20.4   644 – Palomar Mountain/NEAT MPS 112838
2003 01 28.57075 09 22 02.73 +20 56 53.6 20.6   608 – Haleakala-AMOS MPS 71953
2003 01 28.58156 09 22 02.12 +20 56 54.8 20.2   608 – Haleakala-AMOS MPS 71953
2003 01 28.59231 09 22 01.57 +20 56 55.2 21.0   608 – Haleakala-AMOS MPS 71953
2003 01 30.30286 09 20 31.31 +21 00 11.2 19.5 R 699 – Lowell Observatory-LONEOS MPS 71953
2003 01 30.32278 09 20 30.28 +21 00 15.2   699 – Lowell Observatory-LONEOS MPS 71953
2003 01 30.34269 09 20 29.19 +21 00 17.3   699 – Lowell Observatory-LONEOS MPS 71953
2003 01 30.36260 09 20 28.11 +21 00 18.3   699 – Lowell Observatory-LONEOS MPS 71953
2003 02 01.31590 09 18 43.73 +21 03 55.1 19.3   704 – Lincoln Laboratory ETS, New Mexico MPS 73359
2003 02 01.33101 09 18 42.93 +21 03 55.7 19.5   704 – Lincoln Laboratory ETS, New Mexico MPS 73359
2003 02 01.36140 09 18 41.21 +21 03 59.3 19.7   704 – Lincoln Laboratory ETS, New Mexico MPS 73360
2003 02 01.37670 09 18 40.47 +21 04 00.7 19.9   704 – Lincoln Laboratory ETS, New Mexico MPS 73360
2003 02 01.49553 09 18 33.96 +21 04 13.0 20.3   608 – Haleakala-AMOS MPS 73360
2003 02 01.50572 09 18 33.38 +21 04 14.2 20.7   608 – Haleakala-AMOS MPS 73360
2003 02 01.51641 09 18 32.81 +21 04 15.3 20.4   608 – Haleakala-AMOS MPS 73360
2003 02 04.31943 09 16 01.71 +21 09 04.0 18.7   704 – Lincoln Laboratory ETS, New Mexico MPS 71953
2003 02 04.33598 09 16 00.78 +21 09 05.2 19.4   704 – Lincoln Laboratory ETS, New Mexico MPS 71953
2003 02 04.35047 09 15 59.96 +21 09 06.6 19.5   704 – Lincoln Laboratory ETS, New Mexico MPS 71953
2003 02 04.37879 09 15 58.35 +21 09 08.6 19.7   704 – Lincoln Laboratory ETS, New Mexico MPS 71953
2004 05 13.17940 13 15 12.50 -17 55 25.9 19.6   644 – Palomar Mountain/NEAT MPS 112838
2004 05 13.19999 13 15 11.75 -17 55 21.2 19.5   644 – Palomar Mountain/NEAT MPS 112838
2004 05 13.22093 13 15 11.06 -17 55 16.5 19.9   644 – Palomar Mountain/NEAT MPS 112838
2006 08 19.34032 23 10 00.61 -05 04 44.6 19.6 V 691 – Steward Observatory, Kitt Peak-Spacewatch MPS 176020
2006 08 19.35765 23 09 59.89 -05 04 46.4 20.0 V 691 – Steward Observatory, Kitt Peak-Spacewatch MPS 176020
2006 08 19.37497 23 09 59.18 -05 04 48.4 20.0 V 691 – Steward Observatory, Kitt Peak-Spacewatch MPS 176020
2006 08 25.98209 23 05 14.80 -05 18 05.4 19.6 V 104 – San Marcello Pistoiese MPS 176988
2006 08 25.99197 23 05 14.40 -05 18 06.3 20.0 V 104 – San Marcello Pistoiese MPS 176988
2006 08 26.00177 23 05 13.91 -05 18 07.1 19.9 V 104 – San Marcello Pistoiese MPS 176988
2006 08 27.30621 23 04 14.69 -05 21 01.3 19.7 V 691 – Steward Observatory, Kitt Peak-Spacewatch MPS 176988
2006 08 27.32356 23 04 13.86 -05 21 03.5 19.8 V 691 – Steward Observatory, Kitt Peak-Spacewatch MPS 176988
2006 08 27.34092 23 04 13.05 -05 21 05.9 19.9 V 691 – Steward Observatory, Kitt Peak-Spacewatch MPS 176988
2006 08 28.29578 23 03 29.26 -05 23 17.5 19.6 V 703 – Catalina Sky Survey MPS 176988
2006 08 28.30477 23 03 28.76 -05 23 18.0 19.2 V 703 – Catalina Sky Survey MPS 176988
2006 08 28.31382 23 03 28.29 -05 23 17.8 18.9 V 703 – Catalina Sky Survey MPS 176988
2006 08 28.32292 23 03 27.86 -05 23 20.2 19.3 V 703 – Catalina Sky Survey MPS 176988
2006 09 14.26637 22 50 02.32 -06 04 19.2 18.9 V 703 – Catalina Sky Survey MPS 178393
2006 09 14.27277 22 50 01.93 -06 04 17.5 18.6 V 703 – Catalina Sky Survey MPS 178393
2006 09 14.27918 22 50 01.64 -06 04 18.0 20.4 V 703 – Catalina Sky Survey MPS 178393
2006 09 14.28563 22 50 01.32 -06 04 19.3 19.2 V 703 – Catalina Sky Survey MPS 178393
2006 09 20.20436 22 45 32.80 -06 17 43.5 19.1 R 699 – Lowell Observatory-LONEOS MPS 179279
2006 09 20.23178 22 45 31.60 -06 17 46.6   699 – Lowell Observatory-LONEOS MPS 179279
2006 09 20.25918 22 45 30.42 -06 17 51.4   699 – Lowell Observatory-LONEOS MPS 179279
2006 09 20.28663 22 45 29.17 -06 17 54.6   699 – Lowell Observatory-LONEOS MPS 179279
2006 09 27.26276 22 40 42.24 -06 31 25.9 19.8 V G96 – Mt. Lemmon Survey MPS 180958
2006 09 27.26993 22 40 41.95 -06 31 26.8 19.8 V G96 – Mt. Lemmon Survey MPS 180958
2006 09 27.27727 22 40 41.62 -06 31 26.9 19.5 V G96 – Mt. Lemmon Survey MPS 180958
2006 09 27.28448 22 40 41.37 -06 31 27.6 19.4 V G96 – Mt. Lemmon Survey MPS 180958
2006 10 19.16531 22 31 07.78 -06 48 17.2 19.9 V G96 – Mt. Lemmon Survey MPS 182901
2006 10 19.17193 22 31 07.68 -06 48 16.5 19.9 V G96 – Mt. Lemmon Survey MPS 182901
2006 10 19.17853 22 31 07.60 -06 48 16.9 20.1 V G96 – Mt. Lemmon Survey MPS 182901
2006 10 19.18522 22 31 07.50 -06 48 16.6 20.0 V G96 – Mt. Lemmon Survey MPS 182901
2006 11 16.09682 22 33 40.28 -05 58 47.1 20.6 V G96 – Mt. Lemmon Survey MPS 186942
2006 11 16.10238 22 33 40.39 -05 58 46.1 20.1 V G96 – Mt. Lemmon Survey MPS 186942
2006 11 16.10794 22 33 40.46 -05 58 44.6 20.6 V G96 – Mt. Lemmon Survey MPS 186942
2006 11 16.11359 22 33 40.60 -05 58 43.6 20.4 V G96 – Mt. Lemmon Survey MPS 186942
2007 11 08.34418 05 09 13.58 +34 56 00.6 19.7   704 – Lincoln Laboratory ETS, New Mexico MPS 226512
2007 11 08.35644 05 09 13.20 +34 56 03.6 20.0   704 – Lincoln Laboratory ETS, New Mexico MPS 226512
2007 11 08.36868 05 09 12.74 +34 56 05.2 20.0   704 – Lincoln Laboratory ETS, New Mexico MPS 226512
2007 11 17.31949 05 02 55.42 +35 09 22.9 19.3   704 – Lincoln Laboratory ETS, New Mexico MPS 228871
2007 11 17.33212 05 02 54.78 +35 09 23.5 19.4   704 – Lincoln Laboratory ETS, New Mexico MPS 228871
2007 11 17.34475 05 02 54.17 +35 09 24.5 19.1   704 – Lincoln Laboratory ETS, New Mexico MPS 228871
2007 11 17.35760 05 02 53.51 +35 09 25.0 19.5   704 – Lincoln Laboratory ETS, New Mexico MPS 228871
2007 11 17.37023 05 02 52.91 +35 09 26.1 19.3   704 – Lincoln Laboratory ETS, New Mexico MPS 228871
2007 12 16.22446 04 35 38.72 +34 35 43.3 18.2 V 703 – Catalina Sky Survey MPS 232478
2007 12 16.23099 04 35 38.36 +34 35 43.1 18.1 V 703 – Catalina Sky Survey MPS 232478
2007 12 16.23749 04 35 38.04 +34 35 42.6 17.9 V 703 – Catalina Sky Survey MPS 232478
2007 12 16.24399 04 35 37.60 +34 35 39.9 18.3 V 703 – Catalina Sky Survey MPS 232478
2007 12 18.19751 04 33 51.86 +34 29 19.5 19.3   704 – Lincoln Laboratory ETS, New Mexico MPS 232478
2007 12 18.21063 04 33 51.22 +34 29 15.5 20.0   704 – Lincoln Laboratory ETS, New Mexico MPS 232478
